When you browse on this site, cookies collect data to enhance your experience and personalize the content and advertising you see.
Visit our Privacy Policy to learn more. By continuing to use the site, you agree to this use of cookies and data.
  • In Romania
  • List of Countries
  • For 7 days
  • Water Temperature
  • Satellite Maps
  • Weather Map
  • Weather Widgets
  • user-avatar
    Login

    Hourly Weather Comayagua

    Today, 25 May, Saturday

    Time Temperature Precipitation Wind Pressure Humidity
    00:00 +24°C° 0 mm 1 mps 707 mmHg 94%
    01:00 +24°C° 0.2 mm 1 mps 707 mmHg 95%
    02:00 +24°C° 0.2 mm 1 mps 707 mmHg 95%
    03:00 +23°C° 0.2 mm 1 mps 707 mmHg 96%
    04:00 +23°C° 0.1 mm 1 mps 707 mmHg 96%
    05:00 +23°C° 0.1 mm 1 mps 707 mmHg 96%
    06:00 +24°C° 0 mm 1 mps 707 mmHg 95%
    07:00 +25°C° 0.1 mm 1 mps 708 mmHg 90%
    08:00 +26°C° 0.1 mm 2 mps 708 mmHg 85%
    09:00 +27°C° 0.1 mm 2 mps 708 mmHg 79%
    10:00 +28°C° 0.7 mm 2 mps 708 mmHg 75%
    11:00 +30°C° 0.7 mm 2 mps 708 mmHg 70%
    12:00 +31°C° 0.7 mm 2 mps 708 mmHg 66%
    13:00 +30°C° 1.7 mm 2 mps 707 mmHg 67%
    14:00 +30°C° 1.7 mm 2 mps 707 mmHg 69%
    15:00 +30°C° 1.7 mm 2 mps 707 mmHg 71%
    16:00 +29°C° 2.1 mm 2 mps 707 mmHg 76%
    17:00 +27°C° 2.1 mm 2 mps 707 mmHg 82%
    18:00 +26°C° 2.1 mm 1 mps 707 mmHg 87%
    19:00 +25°C° 2.8 mm 1 mps 707 mmHg 89%
    20:00 +25°C° 2.8 mm 1 mps 708 mmHg 92%
    21:00 +24°C° 2.8 mm 1 mps 708 mmHg 95%
    22:00 +24°C° 1.5 mm 1 mps 708 mmHg 95%
    23:00 +24°C° 1.5 mm 1 mps 708 mmHg 96%

    Tomorrow, 26 May, Sunday

    Time Temperature Precipitation Wind Pressure Humidity
    00:00 +23°C° 1.5 mm 1 mps 708 mmHg 96%
    01:00 +23°C° 0.6 mm 1 mps 708 mmHg 96%
    02:00 +24°C° 0.6 mm 1 mps 708 mmHg 96%
    03:00 +24°C° 0.6 mm 1 mps 707 mmHg 95%
    04:00 +24°C° 0.2 mm 1 mps 707 mmHg 95%
    05:00 +24°C° 0.2 mm 1 mps 708 mmHg 95%
    06:00 +24°C° 0.2 mm 1 mps 708 mmHg 95%
    07:00 +24°C° 0.1 mm 1 mps 708 mmHg 91%
    08:00 +25°C° 0.1 mm 1 mps 708 mmHg 88%
    09:00 +26°C° 0.1 mm 2 mps 709 mmHg 84%
    10:00 +27°C° 0.4 mm 2 mps 709 mmHg 78%
    11:00 +29°C° 0.4 mm 2 mps 708 mmHg 72%
    12:00 +30°C° 0.4 mm 2 mps 708 mmHg 65%
    13:00 +30°C° 1.4 mm 2 mps 708 mmHg 67%
    14:00 +30°C° 1.4 mm 2 mps 707 mmHg 69%
    15:00 +30°C° 1.4 mm 2 mps 707 mmHg 71%
    16:00 +28°C° 1.5 mm 2 mps 707 mmHg 76%
    17:00 +27°C° 1.5 mm 1 mps 707 mmHg 81%
    18:00 +26°C° 1.5 mm 1 mps 707 mmHg 86%
    19:00 +25°C° 1.4 mm 1 mps 707 mmHg 88%
    20:00 +25°C° 1.4 mm 1 mps 708 mmHg 91%
    21:00 +24°C° 1.4 mm 1 mps 708 mmHg 93%
    22:00 +24°C° 0.6 mm 1 mps 708 mmHg 94%
    23:00 +24°C° 0.6 mm 1 mps 708 mmHg 95%

    Day after tomorrow, 27 May, Monday

    Time Temperature Precipitation Wind Pressure Humidity
    00:00 +24°C° 0.6 mm 1 mps 708 mmHg 95%
    01:00 +24°C° 0.1 mm 1 mps 708 mmHg 95%
    02:00 +23°C° 0.1 mm 1 mps 707 mmHg 95%
    03:00 +23°C° 0.1 mm 1 mps 707 mmHg 96%
    04:00 +23°C° 0 mm 1 mps 707 mmHg 95%
    05:00 +23°C° 0 mm 1 mps 707 mmHg 95%
    06:00 +23°C° 0 mm 1 mps 707 mmHg 95%
    07:00 +25°C° 0 mm 1 mps 707 mmHg 89%
    08:00 +26°C° 0 mm 1 mps 708 mmHg 83%
    09:00 +27°C° 0 mm 2 mps 708 mmHg 78%
    10:00 +28°C° 0.4 mm 2 mps 708 mmHg 73%
    11:00 +29°C° 0.4 mm 2 mps 708 mmHg 69%
    12:00 +31°C° 0.4 mm 2 mps 708 mmHg 65%
    13:00 +31°C° 1.9 mm 2 mps 707 mmHg 67%
    14:00 +30°C° 1.9 mm 2 mps 706 mmHg 69%
    15:00 +30°C° 1.9 mm 2 mps 705 mmHg 71%
    16:00 +29°C° 2.3 mm 2 mps 705 mmHg 76%
    17:00 +28°C° 2.3 mm 1 mps 706 mmHg 81%
    18:00 +26°C° 2.3 mm 1 mps 706 mmHg 87%
    19:00 +26°C° 2.4 mm 1 mps 706 mmHg 89%
    20:00 +25°C° 2.4 mm 1 mps 707 mmHg 91%
    21:00 +22°C° 2.4 mm 0 mps 707 mmHg 93%
    22:00 +22°C° 0.7 mm 0 mps 707 mmHg 94%
    23:00 +22°C° 0.7 mm 0 mps 707 mmHg 95%

    28 May, Tuesday

    Time Temperature Precipitation Wind Pressure Humidity
    00:00 +22°C° 0.7 mm 0 mps 707 mmHg 95%
    01:00 +22°C° 0 mm 0 mps 706 mmHg 96%
    02:00 +22°C° 0 mm 0 mps 706 mmHg 96%
    03:00 +24°C° 0 mm 1 mps 705 mmHg 96%
    04:00 +24°C° 0 mm 1 mps 705 mmHg 96%
    05:00 +24°C° 0 mm 1 mps 705 mmHg 96%
    06:00 +24°C° 0 mm 1 mps 706 mmHg 95%
    07:00 +25°C° 0 mm 1 mps 706 mmHg 89%
    08:00 +27°C° 0 mm 1 mps 706 mmHg 83%
    09:00 +28°C° 0 mm 2 mps 707 mmHg 77%
    10:00 +29°C° 0.2 mm 2 mps 706 mmHg 72%
    11:00 +30°C° 0.2 mm 2 mps 706 mmHg 67%
    12:00 +31°C° 0.2 mm 2 mps 706 mmHg 63%
    13:00 +31°C° 1.1 mm 2 mps 705 mmHg 64%
    14:00 +31°C° 1.1 mm 1 mps 705 mmHg 65%
    15:00 +31°C° 1.1 mm 1 mps 704 mmHg 66%
    16:00 +30°C° 0.9 mm 1 mps 704 mmHg 72%
    17:00 +26°C° 0.9 mm 0 mps 705 mmHg 78%
    18:00 +25°C° 0.9 mm 0 mps 705 mmHg 83%
    19:00 +24°C° 1.1 mm 0 mps 705 mmHg 86%
    20:00 +24°C° 1.1 mm 0 mps 706 mmHg 88%
    21:00 +23°C° 1.1 mm 0 mps 706 mmHg 91%
    22:00 +25°C° 0.5 mm 1 mps 706 mmHg 92%
    23:00 +25°C° 0.5 mm 1 mps 706 mmHg 93%

    29 May, Wednesday

    Time Temperature Precipitation Wind Pressure Humidity
    00:00 +24°C° 0.5 mm 1 mps 706 mmHg 94%
    01:00 +24°C° 0 mm 1 mps 705 mmHg 94%
    02:00 +24°C° 0 mm 1 mps 705 mmHg 94%
    03:00 +24°C° 0 mm 1 mps 704 mmHg 95%
    04:00 +24°C° 0.1 mm 1 mps 705 mmHg 94%
    05:00 +24°C° 0.1 mm 1 mps 705 mmHg 94%
    06:00 +24°C° 0.1 mm 1 mps 705 mmHg 94%
    07:00 +26°C° 0 mm 1 mps 706 mmHg 86%
    08:00 +28°C° 0 mm 1 mps 706 mmHg 79%
    09:00 +30°C° 0 mm 1 mps 707 mmHg 72%
    10:00 +30°C° 1.1 mm 1 mps 707 mmHg 70%
    11:00 +31°C° 1.1 mm 1 mps 706 mmHg 69%
    12:00 +32°C° 1.1 mm 2 mps 706 mmHg 67%
    13:00 +31°C° 2.3 mm 1 mps 705 mmHg 70%
    14:00 +31°C° 2.3 mm 1 mps 705 mmHg 73%
    15:00 +30°C° 2.3 mm 1 mps 704 mmHg 75%
    16:00 +29°C° 2.6 mm 1 mps 704 mmHg 80%
    17:00 +28°C° 2.6 mm 1 mps 704 mmHg 85%
    18:00 +26°C° 2.6 mm 1 mps 705 mmHg 91%
    19:00 +26°C° 1.1 mm 1 mps 705 mmHg 91%
    20:00 +26°C° 1.1 mm 1 mps 706 mmHg 92%
    21:00 +25°C° 1.1 mm 1 mps 706 mmHg 93%
    22:00 +25°C° 0.8 mm 1 mps 706 mmHg 94%
    23:00 +25°C° 0.8 mm 1 mps 706 mmHg 94%

    30 May, Thursday

    Time Temperature Precipitation Wind Pressure Humidity
    00:00 +25°C° 0.8 mm 1 mps 706 mmHg 95%
    01:00 +25°C° 0.8 mm 1 mps 706 mmHg 94%
    02:00 +25°C° 0.8 mm 1 mps 705 mmHg 94%
    03:00 +25°C° 0.8 mm 2 mps 705 mmHg 94%
    04:00 +25°C° 0.2 mm 2 mps 705 mmHg 94%
    05:00 +25°C° 0.2 mm 1 mps 705 mmHg 94%
    06:00 +24°C° 0.2 mm 1 mps 706 mmHg 94%
    07:00 +26°C° 0 mm 2 mps 706 mmHg 87%
    08:00 +28°C° 0 mm 2 mps 707 mmHg 80%
    09:00 +29°C° 0 mm 2 mps 707 mmHg 72%
    10:00 +30°C° 0.8 mm 2 mps 707 mmHg 70%
    11:00 +31°C° 0.8 mm 2 mps 706 mmHg 67%
    12:00 +32°C° 0.8 mm 2 mps 706 mmHg 64%
    13:00 +31°C° 1.6 mm 2 mps 705 mmHg 68%
    14:00 +31°C° 1.6 mm 2 mps 705 mmHg 71%
    15:00 +30°C° 1.6 mm 2 mps 704 mmHg 75%
    16:00 +29°C° 3.9 mm 2 mps 704 mmHg 81%
    17:00 +27°C° 3.9 mm 1 mps 704 mmHg 87%
    18:00 +26°C° 3.9 mm 1 mps 705 mmHg 94%
    19:00 +25°C° 4.6 mm 1 mps 705 mmHg 94%
    20:00 +25°C° 4.6 mm 1 mps 706 mmHg 95%
    21:00 +25°C° 4.6 mm 1 mps 706 mmHg 95%
    22:00 +25°C° 2.6 mm 1 mps 706 mmHg 95%
    23:00 +25°C° 2.6 mm 1 mps 706 mmHg 95%
    Show more